229P/Gibbs (2017)

Japanese version
Home page
Updated on August 22, 2016

---------------------------------------------------------------------

* Profile

* Orbital Elements

Epoch 2017 May 7.0 TT = JDT 2457880.5
T 2017 May 20.69121 TT                                  MPCW
q   2.4557781            (2000.0)            P               Q
n   0.12621057     Peri.  224.13681     +0.90024602     -0.40279694
a   3.9361554      Node   157.90859     +0.40587105     +0.91378579
e   0.3760973      Incl.   26.06742     -0.15756204     +0.05244191
P   7.81
From 147 observations 2001 Aug. 24-2016 July 9, mean residual 0".8.
     Nongravitational parameters A1 = +6.10, A2 = -0.3465.

* Magnitudes Graph

        m1 = 11.0 + 5 log d + 15.0 log r(t - 100)

---------------------------------------------------------------------

The orbital elements are published on M.P.E.C. 2016-Q04.
The magnitudes graphs are made with Comet for Windows.

---------------------------------------------------------------------

Copyright(C) Seiichi Yoshida (comet@aerith.net). All rights reserved.